VR2OT-10 Weather Reports


Display with metric or nautical units.
time (UTC)temp
F
wind
direction
speed
MPH
gust
MPH
rain 1hr
in
rain 24hr
in
rain mn
in
humidity
%
barometer
mb
20260504081717 75 45 6.0 13.0 0.00 0.00 0.00 72 1014.3
20260504080218 75 90 7.0 13.0 0.00 0.00 0.00 72 1014.7
20260504070218 75 90 10.0 18.0 0.00 0.00 0.00 69 1015.3
20260504060219 77 90 11.0 20.0 0.00 0.00 0.00 62 1015.3
20260504050218 78 90 6.0 17.0 0.00 0.00 0.00 64 1015.7
20260504044717 79 90 4.0 8.0 0.00 0.00 0.00 63 1015.7
20260504043219 78 135 4.0 8.0 0.00 0.00 0.00 66 1015.8
20260504041718 78 135 4.0 8.0 0.00 0.00 0.00 66 1015.8
20260504040218 76 90 3.0 10.0 0.00 0.00 0.00 68 1016.1
20260504034718 0 0.0 0.0 0.00 0.00 0.00
20260504033219 0 135 6.0 11.0 0.00 0.00 0.00 66 1016.0
20260504031718 0 0 1.0 6.0 0.00 0.00 0.00 66 1016.1
20260504030218 0 135 11.0 18.0 0.00 0.00 0.00 66 1016.3
20260504024717 0 0.0 0.0 0.00 0.00 0.00
20260504023217 0 90 11.0 16.0 0.00 0.00 0.00 69 1016.2
20260504021720 0 0.0 0.0 0.00 0.00 0.00
20260504020230 0 135 3.0 9.0 0.00 0.00 0.00 67 1016.1
20260504014727 0 0 1.0 7.0 0.00 0.00 0.00 68 1016.2
20260504013223 0 0.0 0.0 0.00 0.00 0.00
20260504011733 0 135 3.0 7.0 0.00 0.00 0.00 70 1015.7
20260504010233 0 135 2.0 5.0 0.00 0.00 0.00 67 1015.5
20260504004737 0 135 0.0 2.0 0.00 0.00 0.00 69 1015.5
20260504003238 0 0.0 0.0 0.00 0.00 0.00
20260504001735 0 270 3.0 5.0 0.00 0.00 0.00 78 1015.6
20260504000525 0 135 3.0 6.0 0.00 0.00 0.00 71 1015.2
20260503235026 0 0.0 0.0 0.00 0.00 0.00
20260503233225 0 180 1.0 3.0 0.00 0.00 0.00 76 1014.8
20260503231724 0 225 1.0 3.0 0.00 0.00 0.00 77 1014.5
20260503230240 0 180 0.0 2.0 0.00 0.00 0.00 78 1014.2
20260503224732 0 225 1.0 3.0 0.00 0.00 0.00 80 1014.0
20260503223432 0 0.0 0.0 0.00 0.00 0.00
20260503221718 0 180 2.0 4.0 0.00 0.00 0.00 79 1013.7
20260503220217 0 180 1.0 3.0 0.00 0.00 0.00 79 1013.2
20260503214717 0 135 2.0 3.0 0.00 0.00 0.00 82 1013.1
20260503213218 0 135 0.0 2.0 0.00 0.00 0.00 86 1012.6
20260503211717 0 2.0 9.0 0.00 0.00 0.00 85 1012.5
20260503210219 0 315 3.0 6.0 0.00 0.00 0.00 88 1012.0
20260503204718 0 315 3.0 6.0 0.00 0.00 0.00 88 1011.8
20260503203218 0 315 1.0 3.0 0.00 0.00 0.00 89 1011.8
20260503201718 0 315 1.0 3.0 0.00 0.00 0.00 88 1011.7
20260503200218 0 270 3.0 6.0 0.00 0.00 0.00 90 1011.8
20260503194717 0 270 8.0 11.0 0.00 0.00 0.00 89 1012.0
20260503193219 0 270 7.0 11.0 0.00 0.00 0.00 89 1012.3
20260503191718 0 315 8.0 12.0 0.00 0.00 0.00 89 1012.2
20260503190218 0 315 5.0 8.0 0.00 0.00 0.00 89 1012.4
20260503184718 0 270 3.0 4.0 0.00 0.00 0.00 88 1012.3
20260503183218 0 0.0 0.0 0.00 0.00 0.00
20260503181717 0 0.0 0.0 0.00 0.00 0.00
20260503180218 0 270 0.0 2.0 0.00 0.00 0.00 91 1013.1
20260503174718 0 0.0 0.0 0.00 0.00 0.00
20260503173218 0 270 0.0 1.0 0.00 0.00 0.00 92 1013.5
20260503171720 0 0.0 0.0 0.00 0.00 0.00
20260503170221 0 0.0 0.0 0.00 0.00 0.00 93 1014.1
20260503160218 0 135 4.0 8.0 0.00 0.00 0.00 94 1014.3
20260503150218 0 135 8.0 11.0 0.00 0.00 0.00 94 1014.0
20260503140218 0 225 1.0 5.0 0.00 0.00 0.00 94 1013.8
20260503130217 0 270 3.0 6.0 0.00 0.00 0.00 94 1013.5
20260503120220 0 135 6.0 10.0 0.00 0.00 0.00 94 1012.7
20260503110219 0 135 5.0 8.0 0.00 0.00 0.00 95 1011.7
20260503100217 0 90 1.0 3.0 0.00 0.00 0.00 94 1010.8
20260503090218 0 135 2.0 7.0 0.00 0.00 0.00 93 1010.1